Home   Weather   Simi Valley   Past weeks

Flag for USA Past Weather in Simi Valley, California, USA — Yesterday and Last 2 Weeks

Now
51 °F

Heavy rain. Fog.


Feels Like: 46 °F
Forecast: 48 / 55 °F
Wind: 15 mph from Southeast

Location: Van Nuys Airport

Current Time: Jan 20, 2017 at 12:14:24 pm

Latest Report: Jan 20, 2017 at 11:54 am


Visibility: 1 mi

Pressure: 29.48 "Hg

Humidity: 100%

Dew Point: 51 °F

Location of Simi ValleyLocation

Past Weather in Simi Valley — Graph

°F

Simi Valley Temperature Yesterday

Maximum temperature yesterday: 61 °F (at 12:51 pm)
Minimum temperature yesterday: 50 °F (at 2:28 am)
Average temperature yesterday: 53 °F

High & Low Weather Summary for the Past Weeks

 TemperatureHumidityPressure
High74 °F (Jan 8, 12:51 pm)100% (Jan 9, 4:31 am)30.22 "Hg (Jan 9, 4:31 am)
Low41 °F (Jan 18, 5:51 am)22% (Jan 17, 1:51 pm)29.51 "Hg (Jan 20, 11:22 am)
Average54 °F78%30.02 "Hg
* Reported Jan 5 5:41 pm — Jan 20 11:22 am, Simi Valley, Weather by CustomWeather, © 2017

Note: Actual official high and low records may vary slightly from our data, if they occured in-between our weather recording intervals... More about our weather records

Advertising

Simi Valley Weather History for the Previous 24 Hours

Scroll right to see more
 ConditionsComfort  
Time TempWeatherWind HumidityBarometerVisibility
11:22 am
Fri, Jan 20
51 °FRain. Fog.23 mph96%29.51 "Hg2 mi
10:35 am51 °FRain. Fog.15 mph96%29.56 "Hg3 mi
10:19 am51 °FRain. Fog.14 mph100%29.58 "Hg3 mi
9:44 am50 °FRain. Fog.17 mph96%29.62 "Hg2 mi
8:58 am50 °FLight rain. Fog.14 mph96%29.66 "Hg5 mi
8:38 am50 °FLight rain. Fog.14 mph96%29.67 "Hg4 mi
7:58 am49 °FLight rain. Fog.13 mph100%29.67 "Hg5 mi
7:13 am49 °FLight rain. Fog.8 mph100%29.72 "Hg2 mi
6:51 am49 °FLight rain. Mostly cloudy.8 mph97%29.72 "Hg7 mi
6:37 am49 °FLight rain. Mostly cloudy.8 mph97%29.74 "Hg9 mi
5:51 am49 °FMostly cloudy.8 mph97%29.74 "Hg10 mi
4:51 am49 °FLight rain. Mostly cloudy.6 mph100%29.75 "Hg10 mi
4:35 am49 °FLight rain. Fog.6 mph100%29.77 "Hg6 mi
3:51 am50 °FLight rain. Mostly cloudy.5 mph96%29.78 "Hg7 mi
2:51 am50 °FLight rain. Overcast.5 mph100%29.78 "Hg9 mi
1:51 am50 °FOvercast.No wind96%29.83 "Hg10 mi
1:11 am50 °FPartly cloudy.No wind96%29.86 "Hg10 mi
1:01 am50 °FPartly cloudy.3 mph96%29.85 "Hg10 mi
11:51 pm
Thu, Jan 19
51 °FOvercast.No wind89%29.84 "Hg10 mi
11:21 pm51 °FPassing clouds.No wind89%29.85 "Hg10 mi
10:25 pm51 °FPassing clouds.5 mph89%29.88 "Hg10 mi
9:51 pm52 °FMostly cloudy.No wind83%29.88 "Hg10 mi
9:10 pm53 °FPassing clouds.No wind74%29.88 "Hg10 mi
7:51 pm53 °FClear.No wind72%29.88 "Hg10 mi
6:51 pm54 °FClear.No wind72%29.88 "Hg10 mi
5:51 pm55 °FPassing clouds.8 mph69%29.88 "Hg10 mi
4:51 pm57 °FSunny.7 mph64%29.86 "Hg10 mi
3:51 pm59 °FScattered clouds.8 mph60%29.85 "Hg10 mi
2:51 pm61 °FScattered clouds.7 mph54%29.85 "Hg10 mi
1:51 pm61 °FScattered clouds.12 mph50%29.86 "Hg10 mi
12:51 pm61 °FScattered clouds.14 mph52%29.88 "Hg10 mi
12:18 pm60 °FScattered clouds.7 mph56%29.90 "Hg10 mi
Weather by CustomWeather, © 2017

See weather overviewHow to use our weather pages